Location: Cadisotto
(44.9833°N, 10.7333°E)
Time: 04:32:18
(UTC+00:00)

Daily predictions for brighter satellites

Satellite Brightness Start Highest point End
(mag) Time Altitude Azimuth Time Altitude Azimuth Time Altitude Azimuth
Cosmos 1825 2.1 00:13:02 65° SSE 00:13:26 74° E 00:17:12 10° NNE
Cosmos 540 Rocket 3.7 00:15:11 39° SSE 00:16:47 56° ESE 00:21:48 10° NNE
DELTA 2 R/B (1) 4.0 00:16:58 39° S 00:17:08 39° SSE 00:22:16 10° E
Cosmos 1408 3.0 00:19:18 47° W 00:19:35 49° WNW 00:23:11 10° N
NOSS 2-2 (E) 4.4 00:20:42 26° ESE 00:20:42 26° ESE 00:23:34 10° ENE
Cosmos 990 Rocket 4.0 00:15:54 10° NNW 00:21:02 64° WSW 00:22:37 42° S
SL-16 R/B 3.6 00:19:56 16° WSW 00:23:40 31° NW 00:28:42 10° N
Cosmos 405 Rocket 2.5 00:23:36 63° WSW 00:23:58 69° WNW 00:27:39 10° N
Cosmos 841 Rocket 3.8 00:23:03 37° SSE 00:24:50 56° ESE 00:29:52 10° NNE
Cosmos 1242 Rocket 3.6 00:21:31 10° N 00:24:57 40° ENE 00:26:09 30° ESE
Cosmos 2058 2.8 00:24:22 53° SSE 00:25:15 76° E 00:29:21 10° NNE
USA 229 DEB 3.8 00:22:35 26° SW 00:26:22 68° NW 00:33:14 10° NE
USA 229 3.8 00:22:43 26° SW 00:26:28 69° NW 00:33:20 10° NE
Cosmos 1656 Rocket 3.7 00:21:05 10° NNW 00:26:49 84° ENE 00:30:16 25° SSE
Cosmos 2221 2.6 00:22:38 10° N 00:26:56 68° E 00:28:24 39° SSE
X-37B 0.7 00:28:47 67° E 00:28:47 67° E 00:31:35 10° E
Nadezhda 4 Rocket 3.9 00:30:48 33° S 00:33:45 84° E 00:39:55 10° N
NOSS 2-2 (C) 4.3 00:34:05 27° ESE 00:34:10 27° ESE 00:37:14 10° ENE
Cosmos 1898 Rocket 3.5 00:29:11 10° NNW 00:34:21 62° WSW 00:36:11 38° S
Cosmos 1937 Rocket 3.4 00:29:21 10° NNW 00:34:42 85° WSW 00:37:19 31° SSE
NOSS 3-1 (C) 4.4 00:31:11 15° WSW 00:35:25 40° NW 00:41:27 10° NNE
YAOGAN 11 4.2 00:35:34 45° SSW 00:36:44 63° WSW 00:41:13 10° NNW
Cosmos 2369 Rocket 2.4 00:31:18 10° NW 00:36:52 53° WSW 00:38:58 35° SSW
USA 307 3.4 00:38:07 39° SSE 00:38:37 41° SE 00:42:37 10° ENE
Aureole 3 Rocket 3.9 00:34:46 10° N 00:38:38 50° E 00:41:59 20° SSE
SJ 16-02 3.3 00:37:38 10° WNW 00:40:01 15° W 00:40:01 15° W
CREW DRAGON DEMO-1 DEB 4.1 00:40:05 28° NNW 00:40:15 28° NNW 00:42:27 10° NE
ARGOS Delta rocket 4.3 00:38:36 10° NNE 00:44:06 69° E 00:46:49 30° S
NOSS 3-1 (A) 3.9 00:42:41 22° WSW 00:46:08 52° NW 00:52:24 10° NNE
ATLAS 5 CENTAUR R/B 2.0 00:48:04 35° SSE 00:48:58 41° ESE 00:53:00 10° NE
Cosmos 2263 4.3 00:45:00 10° NNW 00:50:33 57° WSW 00:53:06 31° S
CZ-4 R/B 4.1 00:47:08 10° N 00:51:42 54° WNW 00:53:33 33° SW
Helios 1B rocket 3.1 00:48:31 10° NNE 00:52:29 47° E 00:54:08 30° SSE
Cosmos 1814 Rocket 4.1 00:51:51 32° S 00:54:14 69° ESE 00:59:23 10° NNE
Cosmos 1633 2.8 00:53:22 42° SSE 00:54:17 60° E 00:57:46 10° NNE
USA 308 3.1 00:53:26 42° S 00:54:29 54° SE 00:58:39 10° ENE
ADEOS Rocket 4.1 00:47:34 10° SE 00:54:32 51° ENE 01:00:52 10° N
Cosmos 1932 4.5 00:49:58 10° NW 00:56:04 59° WSW 01:00:03 22° S
UNK 3.9 00:54:26 23° SSE 00:57:13 74° ENE 01:01:51 10° N
CZ-3B R/B 4.3 00:50:03 10° WNW 00:57:45 31° N 01:00:45 10° ENE
Helios 1A 3.6 01:00:06 34° SW 01:00:55 37° W 01:04:50 10° NNW
Cosmos 1606 2.6 00:59:08 10° NNW 01:02:59 75° W 01:04:12 41° S
Cosmos 1570 Rocket 4.0 01:01:44 31° SSW 01:04:17 83° ESE 01:09:33 10° NNE
SL-16 R/B 2.5 00:59:52 19° SSE 01:04:29 86° WSW 01:10:43 10° NNW
Cosmos 1933 4.3 01:04:29 10° N 01:08:26 44° ENE 01:11:43 14° SSE
Cosmos 372 Rocket 3.9 01:04:25 10° NNW 01:09:40 74° WSW 01:13:10 21° S
USA 290 2.1 01:11:15 50° SSW 01:11:59 83° ESE 01:15:13 10° NNE
USA 305 2.8 01:10:31 34° SW 01:12:18 80° SE 01:16:34 10° ENE
CZ-4C R/B 4.1 01:11:50 10° SE 01:14:38 15° ESE 01:17:42 10° ENE
Cosmos 1092 Rocket 3.9 01:11:05 25° SSW 01:14:48 80° W 01:20:59 10° N
Lacrosse 4 Rocket 1.4 01:11:51 10° NNW 01:15:58 77° ENE 01:19:59 10° SE
Cosmos 2098 Rocket 4.0 01:15:09 26° SW 01:17:43 44° W 01:22:03 10° N
USA 267 4.4 01:19:18 20° SW 01:19:35 20° WSW 01:24:10 10° WNW
Cosmos 2208 Rocket 4.1 01:16:33 27° SSW 01:19:37 89° W 01:25:08 10° NNE
BREEZE-M R/B 2.6 01:18:11 31° SW 01:19:42 65° SSE 01:24:51 10° ENE
Meteor 2-19 Rocket 4.5 01:16:27 25° SSW 01:20:12 73° W 01:26:21 10° N
Resurs 1-4 Rocket 2.2 01:16:00 10° N 01:21:17 67° WNW 01:24:24 25° SSW
Cosmos 1437 Rocket 4.2 01:18:48 10° NW 01:21:48 21° W 01:22:18 21° WSW
OE (NEXTSAT) 4.4 01:22:34 17° W 01:25:09 74° N 01:28:35 10° E
Meteor 1-29 3.4 01:21:56 10° NNE 01:25:18 54° E 01:26:57 26° SSE
SL-4 R/B 3.7 01:23:31 10° NW 01:26:49 29° N 01:29:57 10° ENE
MINOTAUR 4 R/B 4.0 01:26:32 21° SSE 01:28:46 82° ENE 01:32:19 10° NNW
Landsat 4 4.0 01:27:23 10° NNE 01:31:09 60° ESE 01:33:22 23° S
NOSS 2-2 (D) 3.1 01:30:21 31° SW 01:31:50 70° NW 01:35:32 10° NE
NPP 3.7 01:27:06 10° N 01:32:28 68° WNW 01:35:57 22° SSW
ADEOS II 2.2 01:27:42 10° NNE 01:32:59 75° ESE 01:36:49 19° S
Cosmos 921 Rocket 3.8 01:32:38 23° WSW 01:34:41 37° WNW 01:38:36 10° N
USA 306 3.0 01:32:05 22° WSW 01:34:43 75° NNW 01:38:59 10° NE
Meteor 2-3 Rocket 3.8 01:31:29 18° S 01:35:39 78° E 01:41:15 10° NNE
Lacrosse 5 rocket 3.7 01:33:02 10° NNW 01:35:58 23° NNE 01:38:57 10° E
Cosmos 1943 4.4 01:33:25 15° WSW 01:37:25 32° NW 01:42:28 10° N
FALCON 9 DEB 3.0 01:34:16 10° WNW 01:37:38 65° SW 01:40:59 10° SE
CZ-2D R/B 2.6 01:34:57 10° N 01:39:56 47° WNW 01:43:15 20° SW
IRIDIUM 106 4.5 01:35:52 10° N 01:41:06 75° E 01:46:13 10° S
Alouette 2 Rocket 4.2 01:37:55 10° N 01:41:23 47° ENE 01:45:27 10° SSE
ASTEX 1 4.3 01:40:00 10° SSE 01:44:43 48° ENE 01:49:28 10° N
Cosmos 2151 3.3 01:44:56 23° SW 01:47:17 50° WNW 01:51:24 10° N
IDEFIX/ARIANE 42P 3.1 01:42:13 10° NNE 01:47:23 55° E 01:52:17 11° S
Cosmos 1809 Rocket 4.5 01:42:27 15° S 01:47:39 86° E 01:53:53 10° N
AQUA 4.2 01:47:26 10° N 01:52:03 51° WNW 01:55:17 19° SW
Cosmos 1437 4.3 01:53:57 10° NW 01:55:46 16° W 01:55:51 16° W
Meteor 1-26 Rocket 4.3 01:50:26 10° NNW 01:56:18 79° W 02:02:17 10° S
DELTA 2 R/B (1) 3.8 01:57:46 10° WSW 02:03:06 49° S 02:08:26 10° ESE
X-37B 0.6 02:01:53 10° W 02:05:01 59° SSW 02:08:09 10° ESE
CBERS-1 4.0 02:01:31 10° NNE 02:06:41 88° WNW 02:11:26 12° SSW
IRS-1D 3.5 02:01:46 10° N 02:06:54 71° WNW 02:11:14 14° SSW
BREEZE-M DEB (TANK) 2.3 02:04:53 10° WNW 02:07:07 48° NNE 02:09:47 10° E
Cosmos 1812 3.3 02:06:59 10° N 02:10:48 59° E 02:14:34 10° SSE
Cosmos 1553 Rocket 4.1 02:04:54 10° NNW 02:11:06 61° W 02:17:09 10° S
Cosmos 2292 Rocket 3.4 02:09:53 19° SW 02:11:33 35° WNW 02:14:20 10° N
SL-08 R/B 4.3 02:07:56 10° SE 02:12:24 48° ENE 02:16:59 10° N
CZ-2C R/B 4.4 02:11:18 10° NE 02:15:21 25° E 02:19:17 10° SSE
FALCON 9 DEB 3.3 02:13:27 10° NW 02:16:35 67° NNE 02:19:41 10° ESE
USA 281 3.2 02:10:14 10° SSE 02:16:48 84° WSW 02:23:26 10° NNW
S3M 4.0 02:11:02 10° N 02:17:13 80° W 02:23:25 10° S
GPS 2-04 Rocket1 4.1 02:15:43 16° SW 02:17:29 20° S 02:20:24 10° SE
Cosmos 1782 3.0 02:13:46 10° NNW 02:17:40 51° W 02:21:33 10° S
USA 307 3.8 02:14:29 10° W 02:18:35 44° NNW 02:22:40 10° NE
Meteor 2-21 Rocket 4.5 02:12:52 10° S 02:19:01 85° W 02:25:15 10° N
Cosmos 1271 Rocket 2.6 02:15:55 10° NNW 02:19:39 75° W 02:23:23 10° S
MSX 4.0 02:13:59 10° NNE 02:19:47 77° ESE 02:25:32 10° S
CZ-4C R/B 3.0 02:21:00 10° S 02:24:25 60° WSW 02:27:52 10° NNW
ERBS 2.2 02:24:39 14° SW 02:27:21 84° NW 02:30:35 10° NE
Helios 1B rocket 4.4 02:24:44 10° NNW 02:27:22 17° WNW 02:29:59 10° WSW
Cosmos 1328 Rocket 3.7 02:27:24 10° NNW 02:31:41 57° W 02:35:58 10° S
NOSS 3-2 (A) 4.3 02:25:11 10° NW 02:32:44 80° NE 02:41:20 10° SE
FALCON 9 DEB 2.8 02:30:28 10° WNW 02:33:31 62° SW 02:36:33 10° SE
ATLAS 5 CENTAUR R/B 3.1 02:30:17 10° W 02:33:43 26° NW 02:37:34 10° NNE
USA 308 4.1 02:30:37 10° W 02:34:36 38° NNW 02:38:36 10° NE
Cosmos 1743 Rocket 4.4 02:30:32 10° SSE 02:34:46 50° E 02:39:03 10° NNE
Spot 1 4.5 02:30:08 10° S 02:35:09 62° WSW 02:40:01 10° NNW
SeaSat 1 2.5 02:31:02 10° NNE 02:36:00 89° WNW 02:40:55 10° SSW
Meteor 1-10 Rocket 4.5 02:31:58 10° N 02:37:53 82° E 02:43:39 10° SSE
ADEOS Rocket 4.1 02:33:38 10° SSW 02:40:08 34° W 02:46:09 10° NNW
FALCON 9 DEB 2.7 02:37:18 10° WNW 02:40:24 71° SW 02:43:30 10° SE
Meteor 2-6 Rocket 4.3 02:34:47 10° NNW 02:40:41 74° W 02:46:23 10° S
FALCON 9 DEB 2.9 02:40:44 10° WNW 02:43:46 53° SW 02:46:47 10° SE
ALOS 4.2 02:40:10 10° NE 02:44:09 27° E 02:48:07 10° SSE
Cosmos 1980 Rocket 4.3 02:40:57 10° N 02:45:56 32° NE 02:50:55 10° ESE
Cosmos 1833 Rocket 3.2 02:41:57 10° S 02:47:29 60° ESE 02:53:03 10° NNE
SL-16 R/B 4.2 02:45:51 10° WSW 02:48:56 14° W 02:52:02 10° WNW
Cosmos 2228 Rocket 4.1 02:45:24 10° N 02:49:50 51° ENE 02:54:09 10° SSE
IRS-P3 4.3 02:46:14 10° N 02:51:31 63° WNW 02:56:45 10° SSW
Tianhe-1 2.9 02:50:03 10° SSW 02:52:26 20° SSE 02:54:50 10° ESE
USA 305 4.4 02:48:46 10° W 02:52:36 31° NNW 02:56:26 10° NE
Lacrosse 4 Rocket 3.4 02:53:26 10° W 02:53:57 10° WSW 02:54:28 10° WSW
Meteor 1-27 Rocket 4.1 02:48:22 10° N 02:53:57 69° ENE 02:59:25 10° SSE
Cosmos 1125 Rocket 4.5 02:49:42 10° NW 02:54:07 28° W 02:58:31 10° SSW
Cosmos 1151 Rocket 4.2 02:51:40 10° NW 02:55:08 24° W 02:58:35 10° SW
Cosmos 2266 Rocket 4.2 02:50:26 10° SSW 02:56:24 53° WNW 03:02:19 10° N
